Terminal Aerodrome Forecast
Issued by NWS

Home | Current Version | Previous Version | Text Only | Print | Product List | Glossary On
Versions: 1 2 3 4 5 6 7 8 9 10 11 12 13 14 15 16 17 18 19 20 21 22 23
000
FTUS43 KIND 291400 AAA
TAFBMG
TAF AMD
KBMG 291409Z 2914/3012 VRB05KT P6SM FEW050
     FM291900 31008KT P6SM BKN060
     FM300100 VRB02KT P6SM SCT050=

USA.gov is the U.S. government's official web portal to all federal, state and local government web resources and services.